Regional Weather Roundup
Issued by NWS

Home | Current Version | Previous Version | Graphics & Text | Print | Product List | Glossary Off
Versions: 1 2 3 4 5 6 7 8 9 10 11 12 13 14 15 16 17 18 19 20 21 22 23 24 25 26 27 28 29 30 31 32 33 34 35 36 37 38 39 40 41 42 43 44 45 46 47 48 49 50

000
ASUS43 KTOP 210008
RWRKS

WEATHER ROUNDUP FOR KANSAS
NATIONAL WEATHER SERVICE GOODLAND KS
700 PM CDT SAT SEP 20 2014

NOTE:  "FAIR" INDICATES FEW OR NO CLOUDS BELOW 12,000 FEET WITH NO
SIGNIFICANT WEATHER AND/OR OBSTRUCTIONS TO VISIBILITY.

KSZ001>006-013>018-027>032-041>047-210100-
NORTHWEST KANSAS

CITY           SKY/WX    TMP DP  RH WIND       PRES   REMARKS
GOODLAND       CLEAR     79  51  37 NE9       30.14R
6HR MIN TEMP:  79; 6HR MAX TEMP:  85;

HAYS           CLEAR     82  64  54 NE12      30.00R
HILL CITY      CLEAR     85  52  32 NE8       30.03R
6HR MIN TEMP:  84; 6HR MAX TEMP:  90;

RUSSELL        CLEAR     84  66  54 N12       29.97R
6HR MIN TEMP:  83; 6HR MAX TEMP:  90;

$$

KSZ061>065-074>080-084>089-210100-
SOUTHWEST KANSAS

CITY           SKY/WX    TMP DP  RH WIND       PRES   REMARKS
DODGE CITY     MOCLDY    88  61  40 CALM      29.99S
6HR MIN TEMP:  86; 6HR MAX TEMP:  93;

ELKHART          N/A     88  58  36 E8          N/A
GARDEN CITY    CLEAR     85  61  44 N17       30.02R
6HR MIN TEMP:  82; 6HR MAX TEMP:  91;

GREAT BEND     MOCLDY    82  68  61 NE7       29.96R
LIBERAL        PTCLDY    90  61  37 SE5       30.01S
PRATT          MOCLDY    86  57  37 S8        29.97S
$$

KSZ066>073-081>083-090>101-210100-
SOUTHEAST KANSAS

CITY           SKY/WX    TMP DP  RH WIND       PRES   REMARKS
CHANUTE        MOCLDY    82  71  69 SW10      29.95F
6HR MIN TEMP:  79; 6HR MAX TEMP:  85;

HUTCHINSON     PTCLDY    88  61  40 S9        29.94R
6HR MIN TEMP:  87; 6HR MAX TEMP:  93;

MEDICINE LODGE   N/A     89  60  37 S8        29.93F
NEWTON         PTCLDY    88  61  40 SW7       29.99R
PARSONS        PTCLDY    81  71  71 S6        29.98S
6HR MIN TEMP:  80; 6HR MAX TEMP:  85;

WICHITA INTL   PTCLDY    88  60  38 SW8       29.94S
6HR MIN TEMP:  88; 6HR MAX TEMP:  94;

WICHITA JABRA  CLEAR     87  61  41 S9        29.95S
6HR MIN TEMP:  85; 6HR MAX TEMP:  92;

WICHITA MCCONL CLEAR     87  61  42 SE7       29.96R
WINFIELD       CLEAR     84  67  56 SE7       29.97R
6HR MIN TEMP:  84; 6HR MAX TEMP:  91;

$$

KSZ007>012-019>026-033>040-048>060-102>105-210100-
NORTHEAST KANSAS

CITY           SKY/WX    TMP DP  RH WIND       PRES   REMARKS
CONCORDIA      CLEAR     83  67  58 N3        29.97R
6HR MIN TEMP:  82; 6HR MAX TEMP:  86;

EMPORIA        CLOUDY    78  69  73 NW13      29.95S
6HR MIN TEMP:  78; 6HR MAX TEMP:  88;

LAWRENCE       MOCLDY    75  69  81 NW3       29.93R
6HR MIN TEMP:  75; 6HR MAX TEMP:  85;

MANHATTAN      PTCLDY    75  69  81 S5        29.95S
6HR MIN TEMP:  75; 6HR MAX TEMP:  93; 6HR PCP: TRACE;

MARYSVILLE     CLEAR     82  66  57 CALM      29.95R
OLATHE IND     CLOUDY    76  70  82 S6        29.94S
6HR MIN TEMP:  76; 6HR MAX TEMP:  85;

OLATHE EXE     MOCLDY    77  70  79 S5        29.93S
6HR MIN TEMP:  77; 6HR MAX TEMP:  83;

SALINA         MOCLDY    82  66  58 CALM      29.95R
6HR MIN TEMP:  80; 6HR MAX TEMP:  92; 6HR PCP: TRACE;

TOPEKA BILLARD MOCLDY    76  73  91 CALM      29.93S
6HR MIN TEMP:  75; 6HR MAX TEMP:  90; 6HR PCP:  0.03;

TOPEKA FORBES  MOCLDY    74  67  78 SW3       29.94S
6HR MIN TEMP:  74; 6HR MAX TEMP:  89; 6HR PCP: TRACE;

$$


USA.gov is the U.S. government's official web portal to all federal, state and local government web resources and services.